Weather History for Honolulu, HI

Change the Weather History Date:

Thursday, May 29, 2014

  Actual Average Record
Temperature  
Mean Temperature 80 °F 79 °F  
Max Temperature 86 °F 86 °F 92 °F (1987)
Min Temperature 74 °F 72 °F 65 °F (1964)
Degree Days  
Heating Degree Days 0 0  
Month to date heating degree days 0 0  
Since 1 July heating degree days 0 0  
Cooling Degree Days 15 14  
Month to date cooling degree days 383 368  
Year to date cooling degree days 1577 1475  
Growing Degree Days 30 (Base 50)    
Moisture  
Dew Point 65 °F    
Average Humidity 61    
Maximum Humidity 74    
Minimum Humidity 48    
Precipitation  
Precipitation 0.00 in 0.01 in 0.59 in (2009)
Month to date precipitation 3.35 0.59  
Year to date precipitation 9.97 7.54  
Snow  
Snow 0.00 in - - ()
Month to date snowfall 0.0  
Since 1 July snowfall 0.0  
Snow Depth 0.00 in    
Sea Level Pressure  
Sea Level Pressure 30.02 in    
Wind  
Wind Speed 11 mph (NE)    
Max Wind Speed 18 mph    
Max Gust Speed 26 mph    
Visibility 10 miles    
Events      
T = Trace of Precipitation, MM = Missing Value Source: NWS Daily Summary

Daily Weather History Graph

Daily Weather History Graph

Search for Another Location

Airport:

Trip Planner

Search our weather history database for the weather conditions in past years. The results will help you decide how hot, cold, wet, or windy it might be!

Date:

Astronomy

May. 29, 2014 Rise Set
Actual Time 5:49 AM HST 7:08 PM HST
Civil Twilight 5:25 AM HST 7:33 PM HST
Nautical Twilight 4:55 AM HST 8:02 PM HST
Astronomical Twilight 4:25 AM HST 8:32 PM HST
Moon 6:46 AM HST (5/29) 8:14 PM HST (5/29)
Length of Visible Light 14h 08m
Length of Day
13h 19m
New Moon, 1% of the Moon is Illuminated
May 29
New Moon
Jun 5
First Quarter
Jun 12
Full
Jun 19
Last Quarter
Jun 26
New

Hourly Weather History & Observations

Time (HST) Temp. Heat Index Dew Point Humidity Pressure Visibility Wind Dir Wind Speed Gust Speed Precip Events Conditions
12:53 AM 75.9 °F - 66.0 °F 71% 30.03 in 10.0 mi ENE 10.4 mph - N/A   Partly Cloudy
1:53 AM 75.9 °F - 64.9 °F 69% 30.02 in 10.0 mi ENE 17.3 mph - N/A   Partly Cloudy
2:53 AM 75.0 °F - 64.9 °F 71% 30.01 in 10.0 mi ENE 13.8 mph - N/A   Partly Cloudy
3:53 AM 75.0 °F - 64.9 °F 71% 30.00 in 10.0 mi Calm Calm - N/A   Partly Cloudy
4:53 AM 75.0 °F - 64.9 °F 71% 30.00 in 10.0 mi East 6.9 mph - N/A   Partly Cloudy
5:53 AM 75.9 °F - 64.9 °F 69% 30.01 in 10.0 mi Variable 6.9 mph - N/A   Scattered Clouds
6:53 AM 77.0 °F - 64.9 °F 66% 30.03 in 10.0 mi Calm Calm - N/A   Scattered Clouds
7:53 AM 78.1 °F - 64.9 °F 64% 30.05 in 10.0 mi NE 10.4 mph 18.4 mph N/A   Scattered Clouds
8:53 AM 81.0 °F 82.7 °F 64.9 °F 58% 30.05 in 10.0 mi NE 9.2 mph 18.4 mph N/A   Scattered Clouds
9:53 AM 82.9 °F 84.6 °F 64.9 °F 54% 30.05 in 10.0 mi NNE 15.0 mph 23.0 mph N/A   Scattered Clouds
10:53 AM 82.9 °F 83.7 °F 62.1 °F 49% 30.05 in 10.0 mi NE 13.8 mph 20.7 mph N/A   Scattered Clouds
11:53 AM 84.9 °F 85.4 °F 62.1 °F 46% 30.04 in 10.0 mi NE 16.1 mph 21.9 mph N/A   Scattered Clouds
12:53 PM 86.0 °F 87.3 °F 64.0 °F 48% 30.03 in 10.0 mi ENE 13.8 mph 24.2 mph N/A   Scattered Clouds
1:53 PM 84.0 °F 85.4 °F 64.0 °F 51% 30.01 in 10.0 mi NNE 12.7 mph 19.6 mph N/A   Scattered Clouds
2:53 PM 84.0 °F 85.4 °F 64.0 °F 51% 29.99 in 10.0 mi ENE 12.7 mph 18.4 mph N/A   Scattered Clouds
3:53 PM 84.0 °F 85.4 °F 64.0 °F 51% 29.98 in 10.0 mi ENE 9.2 mph 18.4 mph N/A   Scattered Clouds
4:53 PM 82.9 °F 84.6 °F 64.9 °F 54% 29.97 in 10.0 mi ENE 13.8 mph 21.9 mph N/A   Scattered Clouds
5:53 PM 82.0 °F 83.4 °F 64.0 °F 54% 29.98 in 10.0 mi ENE 10.4 mph 18.4 mph N/A   Scattered Clouds
6:53 PM 79.0 °F - 64.9 °F 62% 29.99 in 10.0 mi ENE 13.8 mph - N/A   Scattered Clouds
7:53 PM 77.0 °F - 66.0 °F 69% 30.01 in 10.0 mi ENE 8.1 mph - N/A   Scattered Clouds
8:53 PM 77.0 °F - 66.0 °F 69% 30.01 in 10.0 mi NE 10.4 mph - 0.00 in   Scattered Clouds
9:53 PM 75.9 °F - 66.0 °F 71% 30.03 in 10.0 mi NE 5.8 mph - N/A   Scattered Clouds
10:53 PM 77.0 °F - 66.0 °F 69% 30.03 in 10.0 mi NE 10.4 mph - N/A   Scattered Clouds
11:53 PM 77.0 °F - 66.9 °F 71% 30.03 in 10.0 mi ENE 16.1 mph 21.9 mph N/A   Mostly Cloudy